Location: Terra Rouge Observatory
(46.0000°N, 62.7500°W)
Time: 10:49:22
(UTC-03:00)

Daily predictions for brighter satellites

Satellite Brightness Start Highest point End
(mag) Time Altitude Azimuth Time Altitude Azimuth Time Altitude Azimuth
Cosmos 1607 4.0 19:16:41 10° SSW 19:22:52 86° ESE 19:29:03 10° NE
Spot 2 Rocket 4.0 19:19:05 10° SE 19:23:43 38° ENE 19:28:21 10° N
Cosmos 2056 Rocket 3.6 19:18:27 10° NNW 19:23:54 74° ENE 19:29:19 10° SSE
Cosmos 1076 Rocket 4.2 19:21:22 10° N 19:25:18 33° ENE 19:29:14 10° SE
Helios 1B rocket 3.5 19:25:21 10° NE 19:28:43 24° E 19:32:03 10° SSE
Cosmos 482 Debris 4.5 19:28:40 10° WNW 19:30:26 28° NNW 19:32:47 10° NE
Cosmos-2242 4.3 19:29:51 10° SE 19:33:01 20° E 19:36:12 10° NE
Cosmos 1371 Rocket 4.4 19:28:16 10° NNW 19:33:33 72° WSW 19:38:50 10° SSE
Cosmos 1484 Rocket 3.5 19:32:03 10° S 19:35:49 60° W 19:39:42 10° NNW
SKYMED 2 3.8 19:32:01 10° N 19:36:23 78° WNW 19:40:42 10° SSW
IDEFIX/ARIANE 42P 4.4 19:31:35 10° SSW 19:36:25 37° W 19:41:17 10° NNW
NOAA 12 4.1 19:31:57 10° SSE 19:37:11 73° ENE 19:42:28 10° N
Cosmos 1408 Rocket 3.9 19:38:42 10° N 19:42:53 44° ENE 19:47:02 10° SSE
BREEZE-M DEB (TANK) 4.1 19:42:38 10° WSW 19:44:09 16° SSW 19:46:19 10° SSE
Cosmos 2237 Rocket 2.6 19:38:31 10° SW 19:44:11 69° WNW 19:49:52 10° NNE
ATLAS CENTAUR R/B 2.9 19:46:48 10° NW 19:50:45 37° WSW 19:54:23 10° S
ATLAS 5 CENTAUR R/B 2.5 19:47:56 10° S 19:52:11 32° ESE 19:56:44 10° NE
USA 215 3.5 19:46:18 10° ENE 19:52:39 50° SE 19:58:56 10° SSW
Okean 3 Rocket 4.1 19:48:59 10° NNW 19:53:31 66° W 19:58:01 10° S
Cosmos 1346 4.4 19:52:23 10° NNE 19:54:48 22° ENE 19:56:02 17° ESE
Cosmos 1766 3.2 19:51:40 10° S 19:55:37 77° E 19:59:37 10° NNE
Resurs 01 Rocket 1.6 19:51:59 10° SSE 19:56:24 70° ENE 20:00:50 10° N
Aureole 2 Rocket 2.9 19:52:42 10° SSW 19:57:04 75° ESE 20:01:22 10° NNE
Resurs 1-3 3.7 19:53:52 10° SSE 19:58:09 56° ENE 20:02:28 10° N
HJ-1C 3.3 19:57:48 10° SSE 20:01:09 80° ENE 20:04:32 10° N
SL-16 R/B 2.2 19:57:46 10° SSW 20:03:26 80° ESE 20:09:10 10° NNE
Cosmos 192 4.3 20:03:02 10° S 20:07:57 68° ESE 20:12:54 10° NNE
Meteor 1-29 3.1 20:06:22 10° NNE 20:09:49 52° E 20:13:14 10° S
Cosmos 1743 Rocket 4.0 20:06:09 10° N 20:10:24 42° ENE 20:14:14 12° SE
CZ-2D R/B 3.7 20:07:37 14° SE 20:10:42 40° ENE 20:14:23 10° N
Nadezhda 4 Rocket 4.1 20:04:35 10° N 20:10:45 52° ENE 20:16:48 10° SSE
Cosmos 1072 Rocket 4.5 20:05:27 10° S 20:11:33 90° W 20:17:42 10° N
ATLAS 3B R/B 4.2 20:05:32 10° WSW 20:12:34 40° NW 20:19:21 10° NNE
Cosmos 1953 2.3 20:12:23 10° S 20:16:19 60° E 20:20:15 10° NNE
ERS-1 Rocket 4.2 20:14:53 20° E 20:16:28 23° ENE 20:20:22 10° N
Cosmos 1092 Rocket 4.3 20:10:42 10° N 20:16:37 43° ENE 20:21:55 12° SE
SeaSat 1 3.3 20:14:48 10° NE 20:18:58 27° ESE 20:23:06 10° SSE
Cosmos 1452 Rocket 3.5 20:15:20 10° NNW 20:20:38 85° WSW 20:25:53 10° SSE
Helios 1A 3.2 20:17:29 10° S 20:21:39 71° WSW 20:25:51 10° NNW
GP-B 4.0 20:19:16 10° NNE 20:23:08 28° E 20:23:52 26° E
Cosmos 2219 Rocket 4.4 20:18:59 10° WSW 20:23:39 26° NW 20:28:23 10° N
Cosmos 1805 3.1 20:23:42 10° S 20:27:38 80° E 20:31:35 10° N
H-2A R/B 2.7 20:25:54 18° SSE 20:28:40 63° ENE 20:32:32 10° N
NOSS 3-2 (A) 3.5 20:22:55 10° SW 20:29:04 88° NW 20:35:51 10° NE
Cosmos 1544 3.1 20:27:40 10° S 20:31:20 59° E 20:35:03 10° NNE
ALOS 2.2 20:26:50 10° SSE 20:31:31 86° ENE 20:36:13 10° NNW
FENGYUN 3A 3.6 20:26:55 10° SSE 20:32:17 84° ENE 20:37:43 10° NNW
Meteor 2-12 Rocket 4.4 20:26:27 10° S 20:32:35 78° E 20:38:45 10° NNE
Cosmos 724 4.4 20:27:57 10° SSW 20:33:44 57° ESE 20:39:41 10° NE
Cosmos 1634 Rocket 4.4 20:28:24 10° SSE 20:34:03 37° E 20:39:42 10° NNE
ATLAS CENTAUR R/B 4.0 20:29:14 10° SW 20:35:00 84° SE 20:54:41 10° NE
CZ-4B DEB 2.8 20:33:12 19° S 20:35:28 80° WSW 20:38:45 10° NNW
CZ-4C R/B 3.7 20:32:55 10° WSW 20:38:05 38° NW 20:43:55 10° NNE
Cosmos 468 4.4 20:34:19 10° S 20:39:30 67° ESE 20:44:43 10° NNE
Cosmos 1420 Rocket 3.9 20:38:27 10° NNW 20:43:47 87° ENE 20:47:17 22° SSE
Cosmos 2369 Rocket 2.5 20:39:41 10° NNW 20:45:11 49° ENE 20:47:06 35° ESE
TELKOM 3 4.1 20:43:20 10° WNW 20:45:22 45° W 20:45:22 45° W
Cosmos 2034 Rocket 4.2 20:39:49 10° SSW 20:46:04 74° W 20:52:26 10° N
Cosmos 1470 2.8 20:49:12 54° E 20:49:12 54° E 20:52:50 10° NNE
Cosmos 1603 3.6 20:44:56 10° SSW 20:50:38 74° ESE 20:56:25 10° NNE
Cosmos 1943 Rocket 3.2 20:48:06 10° N 20:52:58 28° NE 20:53:43 28° ENE
H-2A R/B 3.8 20:54:39 20° NE 20:54:39 20° NE 20:57:03 10° NNE
YAOGAN 11 4.4 20:55:41 44° ENE 20:55:41 44° ENE 20:59:39 10° N
Cosmos 1758 4.5 20:53:59 10° SSW 20:57:54 45° WNW 21:01:53 10° N
Cosmos 1269 Rocket 3.9 20:55:41 10° SSW 21:00:57 79° ESE 21:06:15 10° NNE
USA 186 4.0 21:03:17 15° NNW 21:03:17 15° NNW 21:03:49 10° NNW
Cosmos 1733 4.2 21:04:31 35° NNE 21:04:31 35° NNE 21:06:55 10° NNE
ASTEX 1 3.6 20:59:04 10° N 21:03:59 72° W 21:08:51 10° SSW
Helios 1B rocket 4.2 21:00:24 10° N 21:04:05 33° WNW 21:07:45 10° SW
Cosmos 1048 Rocket 3.9 21:00:09 10° SSW 21:05:26 74° ESE 21:10:41 10° NNE
CENTAUR R/B 2.8 21:00:51 10° S 21:12:42 11° NE 21:12:53 10° NE
NOSS 3-2 (C) 3.9 21:00:40 10° SW 21:06:48 66° NW 21:13:35 10° NE
Cosmos-2242 4.4 21:06:11 10° SSW 21:10:18 40° WNW 21:14:28 10° N
H-2A R/B 4.2 21:12:46 11° NE 21:12:46 11° NE 21:13:25 10° NNE
Meteor 1-11 4.3 21:06:23 10° N 21:12:08 58° ENE 21:12:55 54° ESE
Envisat 3.0 21:13:04 59° E 21:13:17 59° ENE 21:18:18 10° N
ERBS 4.3 21:10:26 10° NNW 21:12:40 22° N 21:12:40 22° N
Cosmos 1674 3.6 21:12:15 10° NNW 21:16:01 49° W 21:16:58 39° SW
Cosmos 1627 Rocket 4.3 21:10:12 10° N 21:16:24 76° E 21:18:30 44° SSE
SJ-11-01 4.1 21:16:04 74° SE 21:16:27 83° ENE 21:21:09 10° NNW
Cosmos 1500 Rocket 4.3 21:15:52 10° NNW 21:20:11 52° W 21:21:56 32° SSW
Meteor 1-16 Rocket 4.4 21:21:45 47° NE 21:21:45 47° NE 21:25:51 10° NNE
Cosmos 1842 Rocket 3.9 21:18:06 22° SSW 21:20:49 64° W 21:25:09 10° N
Cosmos 1939 Rocket 3.7 21:23:46 43° N 21:23:46 43° N 21:26:34 10° N
Cosmos 2151 3.2 21:20:26 10° N 21:24:02 63° NNW 21:24:02 63° NNW
SPOT 5 4.1 21:36:12 27° NNE 21:36:12 27° NNE 21:38:24 10° N
USA 215 3.6 21:30:15 15° NE 21:35:45 61° NNW 21:42:10 10° WSW
ATLAS 5 CENTAUR R/B 3.0 21:32:02 10° WSW 21:36:42 43° NW 21:41:49 10° NNE
Cosmos 2058 4.2 21:34:01 10° N 21:36:26 34° N 21:36:26 34° N
ERS-1 Rocket 3.6 21:54:53 52° WSW 21:54:55 52° W 21:59:51 10° NNW
Cosmos 1110 Rocket 4.3 21:50:01 10° NNW 21:54:39 64° WNW 21:54:39 64° WNW
Cosmos 1655 Rocket 4.1 21:49:58 10° NNW 21:56:11 69° W 21:57:04 61° SW
SeaSat 1 3.3 21:51:55 10° NNE 21:56:41 49° NW 22:01:25 10° SW
Cosmos 2279 Rocket 3.9 21:59:21 81° NNW 21:59:21 81° NNW 22:05:18 10° N
ARGOS 4.2 22:01:35 37° NNE 22:01:35 37° NNE 22:04:59 10° N
UNK 4.2 21:42:52 10° WNW 22:00:19 84° NNE 22:00:45 78° ENE
BREEZE-M DEB (TANK) 3.7 21:55:23 10° WNW 22:02:28 52° WSW 22:02:28 52° WSW
Cosmos 2369 Rocket 3.7 22:24:11 10° NW 22:28:54 28° WSW 22:28:54 28° WSW
H-2A R/B 4.4 22:31:47 23° NW 22:31:47 23° NW 22:33:38 10° NNW
Cosmos 1943 4.5 22:33:11 36° NNW 22:33:11 36° NNW 22:37:05 10° NNE
Cosmos 1943 Rocket 3.4 22:31:33 10° NW 22:35:15 38° WNW 22:35:15 38° WNW
Terra 4.4 22:48:03 15° N 22:48:03 15° N 22:48:55 10° N
H-2A R/B 4.2 22:53:25 21° N 22:53:25 21° N 22:55:02 10° NNW
CENTAUR R/B 3.9 22:51:05 10° WSW 22:59:44 33° N 23:04:00 10° NNE
USA 215 4.4 23:17:38 35° N 23:18:06 36° N 23:23:54 10° WNW
